Overview Statistics Trail Chart Weather Telemetry Raw packets
 

This is the latest recevied weather packets stored in our database for station/object GBTWP-2. If no packets are shown the sender has not sent any weather packets the latest 10 day(s).

<< 77 78 79 80 81 82 83 >>
Time Temp. Humidity Pressure Rain* Wind** Luminosity Snow
1788123120 22.22° C 85% 1019.7 hPa 0 mm - 68 W/m² -
1788122820 22.22° C 85% 1019.7 hPa 0 mm - 88 W/m² -
1788122520 22.22° C 85% 1019.7 hPa 0 mm - 94 W/m² -
1788122220 22.22° C 84% 1019.6 hPa 0 mm - 74 W/m² -
1788121920 22.22° C 84% 1019.5 hPa 0 mm - 63 W/m² -
1788121620 22.22° C 85% 1019.4 hPa 0 mm - 85 W/m² -
1788121320 22.22° C 84% 1019.5 hPa 0 mm - 80 W/m² -
1788121020 22.22° C 84% 1019.4 hPa 0 mm - 82 W/m² -
1788120720 22.22° C 84% 1019.5 hPa 0 mm - 92 W/m² -
1788120420 22.22° C 85% 1019.3 hPa 0 mm - 86 W/m² -
1788120120 22.22° C 85% 1019.2 hPa 0 mm - 104 W/m² -
1788119820 21.67° C 86% 1019.6 hPa 0 mm - 90 W/m² -
1788119520 22.22° C 86% 1019.4 hPa 0 mm - 78 W/m² -
1788119220 22.22° C 85% 1019.7 hPa 0 mm - 83 W/m² -
1788118920 22.22° C 84% 1019.5 hPa 0 mm - 111 W/m² -
1788118621 22.22° C 85% 1019.5 hPa 0 mm - 182 W/m² -
1788118320 21.67° C 86% 1019.6 hPa 0 mm - 131 W/m² -
1788118020 21.67° C 86% 1019.7 hPa 0 mm - 102 W/m² -
1788117720 21.67° C 87% 1019.7 hPa 0 mm - 101 W/m² -
1788117420 21.67° C 87% 1019.9 hPa 0 mm - 99 W/m² -
1788117120 21.67° C 87% 1019.8 hPa 0 mm - 102 W/m² -
1788116821 21.67° C 86% 1019.8 hPa 0 mm - 112 W/m² -
1788116520 21.67° C 87% 1020 hPa 0 mm - 104 W/m² -
1788116220 21.67° C 86% 1019.7 hPa 0 mm - 107 W/m² -
1788115920 21.67° C 87% 1019.9 hPa 0 mm - 131 W/m² -

* Rain latest hour (hover to see other rain measurements)
** Current wind speed in m/s (hover to see current wind gust speed)